Regional Weather Roundup
Issued by NWS Newport/Morehead, NC

Current Version | Previous Version | Graphics & Text | Print | Product List | Glossary On
Versions: 1 2 3 4 5 6 7 8 9 10 11 12 13 14 15 16 17 18 19 20 21 22 23 24 25 26 27 28 29 30 31 32 33 34 35 36 37 38 39 40 41 42 43 44 45 46 47 48 49 50
000 ASUS42 KMHX 162125 RWRMHX WEATHER ROUNDUP FOR EASTERN NORTH CAROLINA NATIONAL WEATHER SERVICE NEWPORT/MOREHEAD CITY NC 500 PM EDT MON OCT 16 2017 NOTE: "FAIR" INDICATES FEW OR NO CLOUDS BELOW 12,000 FEET WITH NO SIGNIFICANT WEATHER AND/OR OBSTRUCTIONS TO VISIBILITY NCZ015>017-031-032-045>047-102-103-162200- NORTH COAST CITY SKY/WX TMP DP RH WIND PRES REMARKS EDENTON DRIZZLE 61 58 91 CALM 30.07S ELIZABETH CITY LGT RAIN 60 58 92 N12 30.07R KITTY HAWK RAIN 62 60 95 N12G23 30.01S MANTEO DRIZZLE N/A N/A N/A NE15G24 30.02F $$ NCZ045>047-081-094-103-104-162200- CENTRAL COAST CITY SKY/WX TMP DP RH WIND PRES REMARKS FRISCO CLOUDY 67 64 90 N9G26 29.99R $$ NCZ095-097-098-100-101-162200- SOUTHERN COAST CITY SKY/WX TMP DP RH WIND PRES REMARKS BEAUFORT CLOUDY 66 64 93 N18G26 29.99R CEDAR ISLAND NOT AVBL JACKSONVILLE LGT RAIN 61 60 97 N15G23 30.02R FOG PINEY ISLAND LGT RAIN N/A N/A N/A N20 30.00R WILMINGTON CLOUDY 63 60 90 N18G26 30.01R $$ NCZ011>013-027>030-043-044-078>080-089-090>093-098-162200- COASTAL PLAIN CITY SKY/WX TMP DP RH WIND PRES REMARKS AHOSKIE CLOUDY 58 55 89 CALM 30.09R CLINTON PTSUNNY 59 57 94 N7 30.08S ELIZABETHTOWN NOT AVBL GOLDSBORO CLOUDY 59 54 82 N10G21 30.07S GREENVILLE CLOUDY 59 55 88 N7 30.09R HAVELOCK LGT RAIN 63 62 97 N18G28 30.02R FOG KENANSVILLE CLOUDY 57 54 88 N9 30.07R KINSTON CLOUDY 57 55 94 N12 30.08R NEW BERN LGT RAIN 58 58 100 N14 30.06R FOG RICHLANDS CLOUDY 57 54 88 N15G21 30.06R ROCKY MOUNT CLOUDY 60 56 86 N7 30.09R WASHINGTON CLOUDY 58 55 92 N9 30.07R WHITEVILLE CLOUDY 60 57 89 N8 30.04R $$ AMZ130-135-150-152-154-156-158-170-250-252-270-ANZ085-086-088-633-658-670-162200- MARINE OBSERVATIONS STATION/POSITION TIME TEMP WIND PRES WAVE SWELL AIR SEA DIR/SP/G HT/PER HT/PER (UTC) (F) (DEG/KT/KT) (MB) (FT/S) (FT/S) CHESAPEAKE LIGHT NOT AVBL 64 E VA BEACH 2050 64 70 350/ 25/ 33 1015.6 6/ 6 2/11 DUCK 2100 60 72 10/ 19/ 27 1016.3 2 E DUCK 2100 72 N/A 6/ 6 OREGON INLET 2100 64 74 360/ 16/ 22 1016.2 13E OREGON INLT 2048 73 N/A 6/ 6 2/ 9 HATTERAS CG 2100 67 77 20/ 23/ 27 1015.4 DIAMOND BUOY 2050 71 80 10/ 23/ 27 1013.8 4/ 4 2/ 8 CAPE LOOKOUT 2100 69 10/ 14/ 22 1014.6 BEAUFORT LAB 2100 67 76 360/ 13/ 20 1016.1 30 SE NEW RVR IN 2108 71 10/ 23/ 33 1014.1 30 SE NEW RVR IN NOT AVBL 27 SE WRIGHTSVLE 2108 69 78 20/ 21/ 27 1014.4 5 SE WRIGHTSVLE 2108 66 77 10/ 17/ 31 1015.6 225 S CAPE HAT 2050 79 80 270/ 6/ 8 1013.6 4/ 8 3/ 8 41 SE CHARLESTON 2110 79 82 340/ 10/ 23 1013.4 $$

USA.gov is the U.S. government's official web portal to all federal, state and local government web resources and services.